Okmulgee, OK

5:49 PM CDT on September 26, 2017 (GMT -0500)
Okmulgee Regional

Weather History for KOKM - March, 2014

Change the Weather History Date:

Tuesday, March 11, 2014

  Actual Average (KMKO) Record (KMKO)
Temperature  
Mean Temperature 65 °F -  
Max Temperature 80 °F 56 °F 80 °F (2014)
Min Temperature 50 °F 36 °F 19 °F (1998)
Growing Degree Days 15 (Base 50)    
Moisture  
Dew Point 47 °F    
Average Humidity 57    
Maximum Humidity 92    
Minimum Humidity 25    
Precipitation  
Precipitation 0.00 in - - ()
Sea Level Pressure  
Sea Level Pressure 29.62 in    
Wind  
Wind Speed 14 mph (SSW)    
Max Wind Speed 26 mph    
Max Gust Speed 37 mph    
Visibility 10 miles    
Events      
Averages and records for this station are not official NWS values.
T = Trace of Precipitation, MM = Missing Value Source: NWS Daily Summary

Daily Weather History Graph

Daily Weather History Graph

Search for Another Location

Airport or City:

Trip Planner

Search our weather history database for the weather conditions in past years. The results will help you decide how hot, cold, wet, or windy it might be!

Date:

Astronomy

Mar. 11, 2014 Rise Set
Actual Time 7:40 AM CDT 7:27 PM CDT
Civil Twilight 7:14 AM CDT 7:53 PM CDT
Nautical Twilight 6:45 AM CDT 8:22 PM CDT
Astronomical Twilight 6:15 AM CDT 8:52 PM CDT
Moon 3:12 PM CDT (3/11) 4:27 AM CDT (3/11)
Length of Visible Light 12h 38m
Length of Day
11h 47m
Waxing Gibbous, 78% of the Moon is Illuminated
Mar 11
Waxing Gibbous
Mar 16
Full
Mar 23
Last Quarter
Mar 30
New
Apr 7
First Quarter

Hourly Weather History & Observations

Time (CDT) Temp. Dew Point Humidity Pressure Visibility Wind Dir Wind Speed Gust Speed Precip Events Conditions
12:15 AM 59.0 °F 38.3 °F 46% 29.78 in 10.0 mi South 17.3 mph - N/A   Clear
12:35 AM 58.1 °F 39.0 °F 49% 29.77 in 10.0 mi South 12.7 mph 20.7 mph N/A   Clear
12:55 AM 57.6 °F 40.1 °F 52% 29.76 in 10.0 mi South 12.7 mph 20.7 mph N/A   Clear
1:15 AM 56.3 °F 40.8 °F 56% 29.76 in 10.0 mi South 10.4 mph - N/A   Clear
1:35 AM 56.5 °F 42.4 °F 59% 29.75 in 10.0 mi South 10.4 mph 18.4 mph N/A   Clear
1:55 AM 56.5 °F 43.7 °F 62% 29.74 in 10.0 mi South 10.4 mph 18.4 mph N/A   Clear
2:15 AM 56.1 °F 44.8 °F 66% 29.73 in 10.0 mi South 12.7 mph 18.4 mph N/A   Clear
2:35 AM 55.8 °F 45.9 °F 69% 29.73 in 10.0 mi South 11.5 mph - N/A   Clear
2:55 AM 55.4 °F 46.9 °F 73% 29.72 in 10.0 mi South 10.4 mph - N/A   Clear
3:15 AM 55.8 °F 47.7 °F 74% 29.71 in 10.0 mi SSW 10.4 mph - N/A   Clear
3:35 AM 55.9 °F 48.2 °F 75% 29.70 in 10.0 mi South 8.1 mph - N/A   Clear
3:55 AM 54.7 °F 48.4 °F 79% 29.69 in 10.0 mi South 4.6 mph - N/A   Clear
4:15 AM 55.0 °F 49.1 °F 80% 29.68 in 10.0 mi SSW 11.5 mph - N/A   Clear
4:35 AM 55.4 °F 49.6 °F 81% 29.67 in 10.0 mi South 4.6 mph - N/A   Clear
4:55 AM 54.5 °F 49.6 °F 84% 29.67 in 10.0 mi South 10.4 mph - N/A   Clear
5:15 AM 54.5 °F 50.2 °F 85% 29.66 in 10.0 mi SSW 10.4 mph - N/A   Clear
5:35 AM 54.5 °F 50.2 °F 85% 29.66 in 10.0 mi SSW 11.5 mph - N/A   Clear
5:55 AM 55.2 °F 50.9 °F 85% 29.65 in 10.0 mi South 11.5 mph - N/A   Clear
6:15 AM 54.5 °F 50.9 °F 88% 29.65 in 10.0 mi South 11.5 mph - N/A   Clear
6:35 AM 54.3 °F 51.1 °F 89% 29.65 in 10.0 mi SSW 8.1 mph - N/A   Clear
6:55 AM 53.8 °F 50.7 °F 89% 29.64 in 10.0 mi South 8.1 mph - N/A   Clear
7:15 AM 53.1 °F 50.9 °F 92% 29.64 in 10.0 mi South 11.5 mph - N/A   Clear
7:35 AM 53.8 °F 51.4 °F 92% 29.64 in 10.0 mi South 11.5 mph - N/A   Clear
7:55 AM 54.5 °F 51.8 °F 91% 29.63 in 10.0 mi South 8.1 mph 16.1 mph N/A   Clear
8:15 AM 55.6 °F 52.2 °F 88% 29.63 in 10.0 mi South 11.5 mph 18.4 mph N/A   Clear
8:35 AM 56.8 °F 52.7 °F 86% 29.62 in 10.0 mi South 12.7 mph 17.3 mph N/A   Clear
8:55 AM 58.1 °F 52.9 °F 83% 29.61 in 10.0 mi South 12.7 mph 17.3 mph N/A   Clear
9:15 AM 59.7 °F 53.1 °F 79% 29.60 in 10.0 mi South 13.8 mph 19.6 mph N/A   Clear
9:35 AM 61.9 °F 53.2 °F 73% 29.59 in 10.0 mi SSW 13.8 mph 19.6 mph N/A   Clear
9:55 AM 63.7 °F 53.1 °F 68% 29.59 in 10.0 mi SSW 13.8 mph 20.7 mph N/A   Clear
10:15 AM 65.1 °F 53.2 °F 65% 29.59 in 10.0 mi SSW 15.0 mph 21.9 mph N/A   Clear
10:35 AM 66.7 °F 53.1 °F 61% 29.58 in 10.0 mi South 12.7 mph 20.7 mph N/A   Clear
10:55 AM 68.7 °F 53.1 °F 57% 29.59 in 10.0 mi South 15.0 mph 20.7 mph N/A   Clear
11:15 AM 70.5 °F 53.1 °F 54% 29.58 in 10.0 mi South 12.7 mph 25.3 mph N/A   Clear
11:35 AM 71.1 °F 53.1 °F 53% 29.57 in 10.0 mi South 18.4 mph 26.5 mph N/A   Clear
11:55 AM 72.1 °F 53.1 °F 51% 29.55 in 10.0 mi South 17.3 mph 32.2 mph N/A   Clear
12:15 PM 73.0 °F 52.9 °F 49% 29.55 in 10.0 mi SSW 18.4 mph 26.5 mph N/A   Clear
12:35 PM 73.8 °F 52.9 °F 48% 29.54 in 10.0 mi South 24.2 mph 33.4 mph N/A   Clear
12:55 PM 74.8 °F 52.7 °F 46% 29.52 in 10.0 mi South 26.5 mph 35.7 mph N/A   Clear
1:15 PM 75.4 °F 52.9 °F 45% 29.51 in 10.0 mi SSW 21.9 mph 32.2 mph N/A   Clear
1:35 PM 75.9 °F 52.7 °F 44% 29.50 in 10.0 mi SSW 23.0 mph 36.8 mph N/A   Clear
1:55 PM 76.3 °F 52.7 °F 44% 29.48 in 10.0 mi South 26.5 mph 35.7 mph N/A   Clear
2:15 PM 77.4 °F 52.9 °F 42% 29.48 in 10.0 mi South 24.2 mph 28.8 mph N/A   Clear
2:35 PM 78.6 °F 52.2 °F 40% 29.46 in 10.0 mi South 23.0 mph 31.1 mph N/A   Clear
2:55 PM 77.7 °F 51.4 °F 40% 29.46 in 10.0 mi South 20.7 mph 32.2 mph N/A   Clear
3:15 PM 79.2 °F 51.3 °F 38% 29.46 in 10.0 mi SSW 18.4 mph 25.3 mph N/A   Clear
3:35 PM 79.0 °F 51.6 °F 38% 29.45 in 10.0 mi South 17.3 mph 24.2 mph N/A   Clear
3:55 PM 79.9 °F 51.1 °F 37% 29.45 in 10.0 mi SSW 15.0 mph 26.5 mph N/A   Clear
4:15 PM 80.6 °F 50.5 °F 35% 29.45 in 10.0 mi SSW 18.4 mph 26.5 mph N/A   Clear
4:35 PM 80.2 °F 50.0 °F 35% 29.45 in 10.0 mi SSW 13.8 mph 23.0 mph N/A   Clear
4:55 PM 80.6 °F 48.6 °F 33% 29.46 in 10.0 mi SW 17.3 mph 29.9 mph N/A   Clear
5:15 PM 80.8 °F 49.3 °F 33% 29.45 in 10.0 mi SSW 15.0 mph 24.2 mph N/A   Clear
5:35 PM 80.6 °F 49.5 °F 34% 29.45 in 10.0 mi SSW 16.1 mph 25.3 mph N/A   Clear
5:55 PM 80.6 °F 49.8 °F 34% 29.46 in 10.0 mi SSW 12.7 mph 23.0 mph N/A   Mostly Cloudy
6:15 PM 80.4 °F 48.2 °F 32% 29.46 in 10.0 mi SSW 11.5 mph 19.6 mph N/A   Scattered Clouds
6:35 PM 80.1 °F 43.2 °F 27% 29.47 in 10.0 mi WSW 17.3 mph 26.5 mph N/A   Scattered Clouds
6:55 PM 74.3 °F 36.1 °F 25% 29.51 in 10.0 mi WNW 23.0 mph 34.5 mph N/A   Clear
7:15 PM 67.6 °F 38.7 °F 35% 29.55 in 10.0 mi WNW 17.3 mph 35.7 mph N/A   Clear
7:35 PM 64.8 °F 38.3 °F 38% 29.57 in 10.0 mi WNW 19.6 mph 31.1 mph N/A   Clear
7:55 PM 63.3 °F 37.4 °F 38% 29.60 in 10.0 mi WNW 19.6 mph 32.2 mph N/A   Clear
8:15 PM 62.6 °F 36.9 °F 38% 29.63 in 10.0 mi NW 15.0 mph 27.6 mph N/A   Clear
8:35 PM 61.2 °F 36.5 °F 40% 29.64 in 10.0 mi WNW 20.7 mph 27.6 mph N/A   Clear
8:55 PM 59.9 °F 36.9 °F 42% 29.68 in 10.0 mi NW 17.3 mph 27.6 mph N/A   Clear
9:15 PM 59.2 °F 37.4 °F 44% 29.69 in 10.0 mi NW 18.4 mph 27.6 mph N/A   Clear
9:35 PM 56.5 °F 36.7 °F 48% 29.72 in 10.0 mi NNW 23.0 mph 34.5 mph N/A   Clear
9:55 PM 54.7 °F 36.1 °F 50% 29.74 in 10.0 mi NNW 25.3 mph 32.2 mph N/A   Clear
10:15 PM 53.8 °F 36.1 °F 51% 29.76 in 10.0 mi NNW 25.3 mph 32.2 mph N/A   Clear
10:35 PM 52.7 °F 36.1 °F 53% 29.79 in 10.0 mi NNW 18.4 mph 32.2 mph N/A   Clear
10:55 PM 52.0 °F 36.1 °F 55% 29.81 in 10.0 mi NNW 21.9 mph 35.7 mph N/A   Clear
11:15 PM 50.5 °F 36.0 °F 57% 29.84 in 10.0 mi NNW 24.2 mph 34.5 mph N/A   Clear
11:35 PM 50.2 °F 36.1 °F 59% 29.86 in 10.0 mi NNW 24.2 mph 36.8 mph N/A   Mostly Cloudy
11:55 PM 50.2 °F 36.1 °F 59% 29.87 in 10.0 mi NW 21.9 mph 34.5 mph N/A   Overcast